Weather Roundup
Issued by NWS Corpus Christi, TX

Home | Current Version | Previous Version | Text Only | Print | Product List | Glossary On
Versions: 1 2 3 4 5 6 7 8 9 10 11 12 13 14 15 16 17 18 19 20 21 22 23 24 25 26 27 28 29 30 31 32 33 34 35 36 37 38 39 40 41 42 43 44 45 46 47 48 49 50
000
ASUS44 KCRP 032210
HRRCRP

SOUTH TEXAS REGIONAL WEATHER ROUNDUP
NATIONAL WEATHER SERVICE CORPUS CHRISTI TX
400 PM CST TUE MAR 03 2015


TXZ229>244-032300-
...CORPUS CHRISTI AREA OBSERVATIONS...

CITY           SKY/WX    TMP DP  RH WIND       PRES   REMARKS
CORPUS CHRISTI CLOUDY    64  62  93 NW5       29.84F FOG
NAS CORPUS CHR CLOUDY    67  67 100 S10       29.83F FOG
ROCKPORT       CLOUDY    69  65  86 S7        29.85F FOG
KINGSVILLE NAS CLOUDY    65  63  93 N3        29.83F FOG
ALICE          CLOUDY    63  59  87 S3        29.83F
FALFURRIAS     CLOUDY    64  61  88 CALM      29.83F
$$

...VICTORIA AREA OBSERVATIONS...

CITY           SKY/WX    TMP DP  RH WIND       PRES   REMARKS
VICTORIA       MOSUNNY   76  66  71 S23G29    29.85S
BEEVILLE       NOT AVBL
PLEASANTON     CLOUDY    58  55  87 CALM      29.85F
SAN ANTONIO    CLOUDY    59  56  89 E3        29.86F FOG
$$

...LAREDO AREA OBSERVATIONS...

CITY           SKY/WX    TMP DP  RH WIND       PRES   REMARKS
LAREDO         CLOUDY    66  58  75 SE10      29.82F
COTULLA        CLOUDY    60  55  83 SE5       29.83F
DEL RIO        PTSUNNY   60  50  69 SE7       29.80F
MCALLEN        MOSUNNY   83  65  54 SE18G31   29.77F
HEBBRONVILLE   CLOUDY   N/A N/A N/A S8        29.83F
$$

...OTHER TEXAS OBSERVATIONS...

CITY           SKY/WX    TMP DP  RH WIND       PRES   REMARKS
BROWNSVILLE    PTSUNNY   77  68  73 SE20      29.83F
HOUSTON        PTSUNNY   79  63  57 S12G22    29.87F
COL. STATION   CLOUDY    75  63  66 S15       29.84S
AUSTIN         FOG       57  57 100 S8        29.86S VSB 3/4
WACO           FOG       50  50 100 SE3       29.84F VSB<1/4
FORT WORTH     DRZL/FOG  51  50  96 S9        29.83F VSB 1
WICHITA FALLS  MOSUNNY   58  48  69 S6        29.79S
LUBBOCK        CLOUDY    61  40  45 NW5       29.81S
EL PASO        PTSUNNY   60  45  57 W7        29.84F
$$

...MARINE OBSERVATIONS...

STATION/POSITION TIME  SKY/WX   TEMP    WIND        PRES    VSBY  WAVE   SWELL
                                AIR SEA DIR/SP/G                  HT/PER HT/PER
                 (UTC)          (F)     (DEG/KT/KT) (MB)    (MI)  (FT/S) (FT/S)
PORT ARANSAS     2200            63 57  150/  9/ 10 1010.8F
BUOY 90 E PORT A 2200            71 69  150/ 16/ 17 1012.0F         3/ 5   2/ 7
BUOY 45 SE BAFFI 2200            69 67  160/ 14/ 16 1010.1F         3/ 5
BUOY 200 E PT IS 2200            72 71  140/ 12/ 16 1013.1F         2/ 4   2/ 7
BUOY 15 E GALVES 2200            64 62  150/  8/  8 1012.7F         1/ 7   2/ 7
$$



USA.gov is the U.S. government's official web portal to all federal, state and local government web resources and services.